| time (UTC) | temp C | wind direction | speed KPH | gust KPH | rain 1hr cm | rain 24hr cm | rain mn cm | humidity % | barometer mb |
| 20260503193022 | 13 | 217 | 1.6 | 12.9 | 0.00 | 0.00 | 0.00 | 78 | 1013.7 |
| 20260503192522 | 13 | 192 | 4.8 | 14.5 | 0.00 | 0.00 | 0.00 | 78 | 1013.7 |
| 20260503192020 | 13 | 195 | 4.8 | 14.5 | 0.00 | 0.00 | 0.00 | 78 | 1013.8 |
| 20260503191519 | 13 | 151 | 3.2 | 16.1 | 0.00 | 0.00 | 0.00 | 80 | 1013.8 |
| 20260503191019 | 13 | 202 | 3.2 | 16.1 | 0.00 | 0.00 | 0.00 | 80 | 1013.8 |
| 20260503190524 | 13 | 184 | 3.2 | 9.7 | 0.00 | 0.00 | 0.00 | 81 | 1013.9 |
| 20260503190018 | 12 | 126 | 1.6 | 9.7 | 0.00 | 0.00 | 0.00 | 84 | 1013.9 |
| 20260503185516 | 12 | 200 | 0.0 | 11.3 | 0.00 | 0.00 | 0.00 | 83 | 1014.0 |
| 20260503185016 | 12 | 155 | 3.2 | 11.3 | 0.00 | 0.00 | 0.00 | 83 | 1014.0 |
| 20260503184516 | 12 | 153 | 3.2 | 8.0 | 0.00 | 0.00 | 0.00 | 84 | 1013.9 |
| 20260503184016 | 12 | 152 | 1.6 | 8.0 | 0.00 | 0.00 | 0.00 | 85 | 1013.9 |
| 20260503183515 | 12 | 182 | 1.6 | 8.0 | 0.00 | 0.00 | 0.00 | 84 | 1013.9 |
| 20260503183015 | 12 | 186 | 1.6 | 8.0 | 0.00 | 0.00 | 0.00 | 84 | 1014.0 |
| 20260503182516 | 12 | 199 | 1.6 | 12.9 | 0.00 | 0.00 | 0.00 | 83 | 1013.9 |
| 20260503182013 | 12 | 167 | 3.2 | 12.9 | 0.00 | 0.00 | 0.00 | 82 | 1013.9 |
| 20260503181516 | 12 | 131 | 4.8 | 16.1 | 0.00 | 0.00 | 0.00 | 82 | 1013.9 |
| 20260503181013 | 12 | 180 | 6.4 | 16.1 | 0.00 | 0.00 | 0.00 | 83 | 1013.8 |
| 20260503180511 | 12 | 146 | 3.2 | 17.7 | 0.00 | 0.00 | 0.00 | 83 | 1013.9 |
| 20260503180022 | 12 | 158 | 8.0 | 17.7 | 0.00 | 0.00 | 0.00 | 85 | 1013.9 |
| 20260503175510 | 11 | 202 | 6.4 | 14.5 | 0.00 | 0.00 | 0.00 | 87 | 1013.9 |
| 20260503175007 | 11 | 360 | 4.8 | 14.5 | 0.00 | 0.00 | 0.00 | 91 | 1013.8 |
| 20260503174513 | 11 | 153 | 4.8 | 14.5 | 0.00 | 0.00 | 0.00 | 91 | 1013.9 |
| 20260503174009 | 11 | 360 | 4.8 | 9.7 | 0.00 | 0.00 | 0.00 | 91 | 1013.8 |
| 20260503173505 | 11 | 147 | 3.2 | 9.7 | 0.00 | 0.00 | 0.00 | 91 | 1013.8 |
| 20260503173010 | 11 | 360 | 3.2 | 8.0 | 0.00 | 0.00 | 0.00 | 91 | 1013.8 |
| 20260503172505 | 11 | 194 | 1.6 | 8.0 | 0.00 | 0.00 | 0.00 | 90 | 1013.7 |
| 20260503172003 | 11 | 143 | 3.2 | 9.7 | 0.00 | 0.00 | 0.00 | 90 | 1013.6 |
| 20260503171503 | 11 | 153 | 3.2 | 9.7 | 0.00 | 0.00 | 0.00 | 89 | 1013.6 |
| 20260503171003 | 11 | 360 | 1.6 | 9.7 | 0.00 | 0.00 | 0.00 | 89 | 1013.8 |
| 20260503170503 | 11 | 181 | 1.6 | 11.3 | 0.00 | 0.00 | 0.00 | 89 | 1013.7 |
| 20260503150543 | 10 | 140 | 1.6 | 6.4 | 0.00 | 0.00 | 0.00 | 89 | 1013.0 |
| 20260503131029 | 10 | 163 | 0.0 | 8.0 | 0.00 | 0.00 | 0.00 | 90 | 1011.7 |
| 20260503130528 | 10 | 163 | 3.2 | 8.0 | 0.00 | 0.00 | 0.00 | 90 | 1011.5 |
| 20260503110520 | 10 | 163 | 3.2 | 8.0 | 0.00 | 0.00 | 0.00 | 90 | 1011.7 |
| 20260503090509 | 10 | 182 | 4.8 | 9.7 | 0.00 | 0.00 | 0.00 | 90 | 1012.0 |
| 20260503081504 | 10 | 160 | 1.6 | 8.0 | 0.00 | 0.00 | 0.00 | 90 | 1012.5 |
| 20260503081004 | 10 | 168 | 1.6 | 8.0 | 0.00 | 0.00 | 0.00 | 90 | 1012.5 |
| 20260503080506 | 10 | 152 | 1.6 | 8.0 | 0.00 | 0.00 | 0.00 | 90 | 1012.5 |
| 20260503072503 | 10 | 163 | 4.8 | 12.9 | 0.00 | 0.00 | 0.00 | 90 | 1012.5 |
| 20260503072100 | 10 | 173 | 1.6 | 8.0 | 0.00 | 0.00 | 0.00 | 90 | 1012.6 |
| 20260503071605 | 10 | 158 | 3.2 | 8.0 | 0.00 | 0.00 | 0.00 | 90 | 1012.6 |
| 20260503071059 | 10 | 150 | 1.6 | 8.0 | 0.00 | 0.00 | 0.00 | 90 | 1012.5 |
| 20260503070559 | 10 | 168 | 3.2 | 8.0 | 0.00 | 0.00 | 0.00 | 89 | 1012.6 |
| 20260503070105 | 10 | 173 | 3.2 | 8.0 | 0.00 | 0.00 | 0.00 | 90 | 1012.6 |
| 20260503060109 | 10 | 164 | 3.2 | 8.0 | 0.00 | 0.00 | 0.00 | 90 | 1012.8 |
| 20260503055055 | 10 | 148 | 3.2 | 9.7 | 0.00 | 0.00 | 0.00 | 90 | 1012.9 |
| 20260503054601 | 10 | 165 | 4.8 | 9.7 | 0.00 | 0.00 | 0.00 | 90 | 1012.9 |
| 20260503054056 | 10 | 152 | 1.6 | 8.0 | 0.00 | 0.00 | 0.00 | 90 | 1013.0 |
| 20260503053554 | 10 | 153 | 3.2 | 9.7 | 0.00 | 0.00 | 0.00 | 89 | 1012.9 |
| 20260503053054 | 10 | 140 | 3.2 | 9.7 | 0.00 | 0.00 | 0.00 | 89 | 1012.9 |
| 20260503052554 | 10 | 151 | 3.2 | 8.0 | 0.00 | 0.00 | 0.00 | 89 | 1012.9 |
| 20260503052053 | 10 | 143 | 3.2 | 8.0 | 0.00 | 0.00 | 0.00 | 89 | 1013.0 |
| 20260503051554 | 10 | 128 | 1.6 | 8.0 | 0.00 | 0.00 | 0.00 | 89 | 1013.0 |
| 20260503051053 | 10 | 158 | 4.8 | 8.0 | 0.00 | 0.00 | 0.00 | 89 | 1013.0 |
| 20260503050553 | 10 | 163 | 3.2 | 9.7 | 0.00 | 0.00 | 0.00 | 89 | 1012.9 |
| 20260503050054 | 10 | 150 | 3.2 | 11.3 | 0.00 | 0.00 | 0.00 | 89 | 1012.9 |
| 20260503045553 | 10 | 179 | 3.2 | 11.3 | 0.00 | 0.00 | 0.00 | 90 | 1013.0 |
| 20260503045053 | 10 | 157 | 4.8 | 11.3 | 0.00 | 0.00 | 0.00 | 90 | 1012.8 |
| 20260503044604 | 10 | 150 | 3.2 | 8.0 | 0.00 | 0.00 | 0.00 | 90 | 1012.9 |
| 20260503044052 | 10 | 193 | 3.2 | 9.7 | 0.00 | 0.00 | 0.00 | 90 | 1012.9 |
| 20260503043551 | 10 | 171 | 1.6 | 8.0 | 0.00 | 0.00 | 0.00 | 90 | 1012.8 |
| 20260503043057 | 10 | 171 | 3.2 | 8.0 | 0.00 | 0.00 | 0.00 | 90 | 1012.9 |
| 20260503042551 | 10 | 170 | 1.6 | 8.0 | 0.00 | 0.00 | 0.00 | 90 | 1012.7 |
| 20260503042051 | 10 | 163 | 3.2 | 8.0 | 0.00 | 0.00 | 0.00 | 90 | 1012.7 |
| 20260503041552 | 10 | 161 | 1.6 | 6.4 | 0.00 | 0.00 | 0.00 | 90 | 1012.7 |
| 20260503041051 | 10 | 152 | 3.2 | 11.3 | 0.00 | 0.00 | 0.00 | 90 | 1012.7 |
| 20260503040550 | 10 | 130 | 4.8 | 11.3 | 0.00 | 0.00 | 0.00 | 90 | 1012.7 |
| 20260503040052 | 10 | 163 | 4.8 | 8.0 | 0.00 | 0.00 | 0.00 | 90 | 1012.6 |
| 20260503035551 | 10 | 173 | 3.2 | 9.7 | 0.00 | 0.00 | 0.00 | 90 | 1012.7 |
| 20260503035051 | 10 | 148 | 3.2 | 9.7 | 0.00 | 0.00 | 0.00 | 90 | 1012.7 |
| 20260503034551 | 10 | 157 | 3.2 | 9.7 | 0.00 | 0.00 | 0.00 | 90 | 1012.6 |
| 20260503034050 | 10 | 152 | 1.6 | 8.0 | 0.00 | 0.00 | 0.00 | 90 | 1012.6 |
| 20260503033549 | 10 | 169 | 4.8 | 9.7 | 0.00 | 0.00 | 0.00 | 90 | 1012.5 |
| 20260503033104 | 10 | 157 | 4.8 | 9.7 | 0.00 | 0.00 | 0.00 | 90 | 1012.3 |
| 20260503032549 | 10 | 171 | 4.8 | 9.7 | 0.00 | 0.00 | 0.00 | 90 | 1012.4 |
| 20260503032049 | 10 | 161 | 1.6 | 14.5 | 0.00 | 0.00 | 0.00 | 90 | 1012.3 |
| 20260503031549 | 10 | 169 | 3.2 | 14.5 | 0.00 | 0.00 | 0.00 | 90 | 1012.3 |
| 20260503031049 | 10 | 159 | 4.8 | 14.5 | 0.00 | 0.00 | 0.00 | 90 | 1012.1 |
| 20260503030548 | 10 | 165 | 4.8 | 14.5 | 0.00 | 0.00 | 0.00 | 90 | 1012.1 |
| 20260503030048 | 10 | 149 | 4.8 | 12.9 | 0.00 | 0.00 | 0.00 | 89 | 1012.0 |
| 20260503025551 | 10 | 142 | 3.2 | 11.3 | 0.00 | 0.00 | 0.00 | 89 | 1012.0 |
| 20260503025048 | 10 | 135 | 4.8 | 11.3 | 0.00 | 0.00 | 0.00 | 89 | 1012.1 |
| 20260503024551 | 10 | 152 | 4.8 | 11.3 | 0.00 | 0.00 | 0.00 | 89 | 1012.0 |
| 20260503024048 | 10 | 124 | 4.8 | 14.5 | 0.00 | 0.00 | 0.00 | 89 | 1012.0 |
| 20260503023551 | 10 | 130 | 4.8 | 14.5 | 0.00 | 0.00 | 0.00 | 89 | 1012.0 |
| 20260503023058 | 10 | 202 | 4.8 | 11.3 | 0.00 | 0.00 | 0.00 | 89 | 1012.0 |
| 20260503022546 | 10 | 178 | 6.4 | 11.3 | 0.00 | 0.00 | 0.00 | 88 | 1012.0 |
| 20260503022046 | 10 | 128 | 4.8 | 11.3 | 0.00 | 0.00 | 0.00 | 88 | 1012.0 |
| 20260503021551 | 10 | 168 | 4.8 | 14.5 | 0.00 | 0.00 | 0.00 | 88 | 1012.0 |
| 20260503021048 | 10 | 137 | 6.4 | 14.5 | 0.00 | 0.00 | 0.00 | 88 | 1012.1 |
| 20260503020647 | 11 | 168 | 3.2 | 9.7 | 0.00 | 0.00 | 0.00 | 87 | 1012.1 |
| 20260503020046 | 11 | 154 | 4.8 | 11.3 | 0.00 | 0.00 | 0.00 | 86 | 1012.1 |
| 20260503015547 | 11 | 158 | 4.8 | 11.3 | 0.00 | 0.00 | 0.00 | 86 | 1012.0 |
| 20260503015045 | 11 | 183 | 4.8 | 11.3 | 0.00 | 0.00 | 0.00 | 86 | 1012.0 |
| 20260503014548 | 11 | 149 | 3.2 | 16.1 | 0.00 | 0.00 | 0.00 | 85 | 1012.1 |
| 20260503014049 | 11 | 169 | 6.4 | 16.1 | 0.00 | 0.00 | 0.00 | 85 | 1012.1 |
| 20260503013544 | 11 | 173 | 4.8 | 14.5 | 0.00 | 0.00 | 0.00 | 85 | 1012.2 |
| 20260503013044 | 11 | 142 | 4.8 | 11.3 | 0.00 | 0.00 | 0.00 | 84 | 1012.1 |
| 20260503012544 | 11 | 137 | 4.8 | 11.3 | 0.00 | 0.00 | 0.00 | 84 | 1012.2 |
| 20260503012042 | 11 | 360 | 3.2 | 12.9 | 0.00 | 0.00 | 0.00 | 83 | 1012.2 |
| 20260503011557 | 11 | 360 | 1.6 | 14.5 | 0.00 | 0.00 | 0.00 | 83 | 1012.3 |
| 20260503011045 | 11 | 360 | 4.8 | 14.5 | 0.00 | 0.00 | 0.00 | 83 | 1012.2 |
| 20260503010542 | 11 | 360 | 1.6 | 11.3 | 0.00 | 0.00 | 0.00 | 83 | 1012.2 |
| 20260503010052 | 11 | 144 | 1.6 | 11.3 | 0.00 | 0.00 | 0.00 | 83 | 1012.2 |
| 20260503005545 | 12 | 178 | 1.6 | 11.3 | 0.00 | 0.00 | 0.00 | 83 | 1012.3 |
| 20260503005042 | 12 | 105 | 4.8 | 11.3 | 0.00 | 0.00 | 0.00 | 82 | 1012.2 |
| 20260503004542 | 12 | 182 | 4.8 | 8.0 | 0.00 | 0.00 | 0.00 | 83 | 1012.3 |
| 20260503004041 | 12 | 136 | 3.2 | 12.9 | 0.00 | 0.00 | 0.00 | 82 | 1012.3 |
| 20260503003541 | 12 | 141 | 4.8 | 12.9 | 0.00 | 0.00 | 0.00 | 82 | 1012.4 |
| 20260503003053 | 12 | 121 | 3.2 | 12.9 | 0.00 | 0.00 | 0.00 | 82 | 1012.3 |
| 20260503002540 | 12 | 140 | 3.2 | 11.3 | 0.00 | 0.00 | 0.00 | 81 | 1012.3 |
| 20260503002040 | 12 | 144 | 3.2 | 12.9 | 0.00 | 0.00 | 0.00 | 81 | 1012.4 |
| 20260503001540 | 12 | 151 | 4.8 | 16.1 | 0.00 | 0.00 | 0.00 | 81 | 1012.4 |
| 20260503001039 | 12 | 146 | 4.8 | 16.1 | 0.00 | 0.00 | 0.00 | 80 | 1012.4 |
| 20260503000540 | 12 | 162 | 3.2 | 16.1 | 0.00 | 0.00 | 0.00 | 79 | 1012.3 |
| 20260503000058 | 12 | 182 | 4.8 | 14.5 | 0.00 | 0.00 | 0.00 | 80 | 1012.5 |
| 20260502235539 | 13 | 163 | 3.2 | 12.9 | 0.00 | 0.00 | 0.00 | 79 | 1012.5 |
| 20260502235038 | 13 | 168 | 4.8 | 12.9 | 0.00 | 0.00 | 0.00 | 79 | 1012.5 |
| 20260502234543 | 13 | 169 | 3.2 | 12.9 | 0.00 | 0.00 | 0.00 | 79 | 1012.5 |
| 20260502234038 | 12 | 150 | 4.8 | 12.9 | 0.00 | 0.00 | 0.00 | 79 | 1012.6 |
| 20260502233536 | 13 | 163 | 4.8 | 12.9 | 0.00 | 0.00 | 0.00 | 78 | 1012.7 |
| 20260502233038 | 13 | 150 | 3.2 | 12.9 | 0.00 | 0.00 | 0.00 | 79 | 1012.6 |
| 20260502232536 | 13 | 187 | 4.8 | 12.9 | 0.00 | 0.00 | 0.00 | 78 | 1012.7 |
| 20260502232035 | 13 | 128 | 3.2 | 16.1 | 0.00 | 0.00 | 0.00 | 78 | 1012.8 |
| 20260502231540 | 13 | 146 | 3.2 | 16.1 | 0.00 | 0.00 | 0.00 | 78 | 1012.8 |
| 20260502231035 | 13 | 161 | 4.8 | 16.1 | 0.00 | 0.00 | 0.00 | 78 | 1012.8 |
| 20260502230534 | 13 | 188 | 4.8 | 16.1 | 0.00 | 0.00 | 0.00 | 77 | 1012.9 |
| 20260502230035 | 13 | 165 | 3.2 | 14.5 | 0.00 | 0.00 | 0.00 | 77 | 1013.0 |
| 20260502225535 | 13 | 165 | 4.8 | 16.1 | 0.00 | 0.00 | 0.00 | 78 | 1013.2 |
| 20260502225033 | 13 | 167 | 6.4 | 16.1 | 0.00 | 0.00 | 0.00 | 78 | 1013.1 |
| 20260502224534 | 13 | 149 | 3.2 | 17.7 | 0.00 | 0.00 | 0.00 | 78 | 1013.2 |
| 20260502224035 | 13 | 151 | 6.4 | 17.7 | 0.00 | 0.00 | 0.00 | 78 | 1013.3 |
| 20260502223533 | 13 | 136 | 6.4 | 14.5 | 0.00 | 0.00 | 0.00 | 77 | 1013.3 |
| 20260502223033 | 13 | 155 | 3.2 | 16.1 | 0.00 | 0.00 | 0.00 | 77 | 1013.5 |
| 20260502222531 | 13 | 202 | 6.4 | 16.1 | 0.00 | 0.00 | 0.00 | 77 | 1013.4 |
| 20260502222031 | 13 | 172 | 8.0 | 16.1 | 0.00 | 0.00 | 0.00 | 78 | 1013.5 |
| 20260502221530 | 13 | 115 | 3.2 | 16.1 | 0.00 | 0.00 | 0.00 | 78 | 1013.6 |
| 20260502221032 | 13 | 138 | 3.2 | 17.7 | 0.00 | 0.00 | 0.00 | 79 | 1013.7 |
| 20260502220530 | 13 | 180 | 8.0 | 17.7 | 0.00 | 0.00 | 0.00 | 77 | 1013.7 |
| 20260502220031 | 13 | 138 | 4.8 | 14.5 | 0.00 | 0.00 | 0.00 | 77 | 1013.7 |
| 20260502215529 | 13 | 172 | 4.8 | 12.9 | 0.00 | 0.00 | 0.00 | 78 | 1013.7 |
| 20260502215029 | 13 | 153 | 4.8 | 12.9 | 0.00 | 0.00 | 0.00 | 79 | 1013.9 |
| 20260502214528 | 13 | 199 | 6.4 | 12.9 | 0.00 | 0.00 | 0.00 | 78 | 1013.8 |
| 20260502214027 | 13 | 145 | 1.6 | 12.9 | 0.00 | 0.00 | 0.00 | 80 | 1013.7 |
| 20260502213527 | 13 | 225 | 6.4 | 16.1 | 0.00 | 0.00 | 0.00 | 79 | 1013.9 |
| 20260502213030 | 12 | 177 | 8.0 | 16.1 | 0.00 | 0.00 | 0.00 | 80 | 1013.9 |
| 20260502212524 | 12 | 131 | 8.0 | 16.1 | 0.00 | 0.00 | 0.00 | 80 | 1013.9 |
| 20260502212023 | 12 | 229 | 4.8 | 16.1 | 0.00 | 0.00 | 0.00 | 82 | 1014.0 |
| 20260502211523 | 12 | 159 | 8.0 | 14.5 | 0.00 | 0.00 | 0.00 | 82 | 1014.0 |
| 20260502211021 | 12 | 116 | 4.8 | 14.5 | 0.00 | 0.00 | 0.00 | 83 | 1014.1 |
| 20260502210521 | 12 | 167 | 6.4 | 14.5 | 0.00 | 0.00 | 0.00 | 83 | 1014.1 |
| 20260502210021 | 12 | 169 | 6.4 | 19.3 | 0.00 | 0.00 | 0.00 | 83 | 1014.2 |
| 20260502205521 | 12 | 131 | 8.0 | 19.3 | 0.00 | 0.00 | 0.00 | 83 | 1014.2 |
| 20260502205020 | 12 | 173 | 4.8 | 16.1 | 0.00 | 0.00 | 0.00 | 84 | 1014.3 |
| 20260502204524 | 12 | 213 | 6.4 | 12.9 | 0.00 | 0.00 | 0.00 | 84 | 1014.4 |
| 20260502204021 | 12 | 139 | 4.8 | 16.1 | 0.00 | 0.00 | 0.00 | 84 | 1014.4 |
| 20260502203516 | 11 | 156 | 4.8 | 16.1 | 0.00 | 0.00 | 0.00 | 85 | 1014.4 |
| 20260502203018 | 11 | 140 | 3.2 | 16.1 | 0.00 | 0.00 | 0.00 | 86 | 1014.5 |
| 20260502202518 | 11 | 181 | 4.8 | 16.1 | 0.00 | 0.00 | 0.00 | 86 | 1014.5 |
| 20260502202015 | 11 | 164 | 4.8 | 17.7 | 0.00 | 0.00 | 0.00 | 86 | 1014.5 |
| 20260502201517 | 11 | 153 | 4.8 | 17.7 | 0.00 | 0.00 | 0.00 | 87 | 1014.6 |
| 20260502201019 | 11 | 153 | 6.4 | 16.1 | 0.00 | 0.00 | 0.00 | 87 | 1014.7 |
| 20260502200515 | 11 | 169 | 6.4 | 16.1 | 0.00 | 0.00 | 0.00 | 87 | 1014.7 |
| 20260502200015 | 11 | 162 | 4.8 | 12.9 | 0.00 | 0.00 | 0.00 | 88 | 1014.8 |
| 20260502195517 | 11 | 179 | 6.4 | 16.1 | 0.00 | 0.00 | 0.00 | 88 | 1014.8 |
| 20260502195013 | 11 | 177 | 4.8 | 16.1 | 0.00 | 0.00 | 0.00 | 88 | 1014.8 |
| 20260502194514 | 11 | 152 | 4.8 | 11.3 | 0.00 | 0.00 | 0.00 | 88 | 1014.7 |
| 20260502194014 | 11 | 150 | 4.8 | 14.5 | 0.00 | 0.00 | 0.00 | 88 | 1014.8 |